Погода в Бегичевом

Россия / Липецкая область     53°34′09″N   38°54′35″E
темп.,
°C
ветер,
м/с
пор.,
м/с
влажн.,
%
обл.,
%
осадки,
мм/ч
давл.,
гПа
погр.,
м
12 мая, ср
ср1200:00+8вюв22830 0.0 102613
03:00+6вюв228713 0.0 102616
06:00+7всв24835 0.0 1026107
09:00+12св456971 0.0 1024561
12:00+9с2398100 3.9 1022144
15:00+9сз2396100 6.8 1021177
18:00+11ююв34779 0.0 1020633
21:00+8в4793100 0.0 1020119
13 мая, чт
чт1300:00+8в51293100 0.0 1020271
03:00+9вюв51493100 0.0 1020387
06:00+10вюв41092100 0.1 1019262
09:00+13вюв3479100 0.1 1018339
12:00+16всв557421 0.0 1016888
15:00+19ююв576141 0.5 10151562
18:00+15юз368333 1.0 1015289
21:00+13ююз119034 1.8 101711
14 мая, пт
пт1400:00+13ююв0088100 0.0 101710
03:00+13в2288100 0.0 101721
06:00+13в3692100 0.0 1017136
09:00+18вюв587649 0.1 1016441
12:00+22юв7966100 0.0 10151050
15:00+24юв71163100 0.0 10141597
18:00+22юв61273100 0.9 1012484
21:00+19ююв61684100 1.9 1012378
15 мая, сб
сб1500:00+17юв348899 0.3 101269
03:00+16юз4789100 0.4 1013132
06:00+15ссв359478 2.1 1012139
09:00+17юв61390100 4.1 1012569
12:00+17юз81393100 6.4 1010711
15:00+21ююз610730 11.0 1011891
18:00+20ююз487614 0.8 1011329
21:00+16ююз398848 1.1 1012165
16 мая, вс
вс1600:00+14юз37920 0.0 1012140
03:00+12зюз369525 0.0 1013107
06:00+13з12895 0.0 101564
09:00+17зюз22705 0.0 1015465
12:00+20зюз23567 0.0 10161218
15:00+22юз22512 0.0 10151412
18:00+22зюз125979 0.0 10151281
21:00+17всв226897 0.0 101511